Location: Rounton
(54.4000°N, 1.3500°W)
Time: 15:22:41
(UTC+00:00)

Transit 2A Rocket - Pass Details

Date: 03 December 2021
Orbit: 584 x 918 km, 66.7° (Epoch: 21 January)

Event Time Altitude Azimuth Distance (km) Brightness Sun altitude
Rises 13:58:00 0° 310° (NW) 3,551 8.3 9.0°
Reaches altitude 10° 14:00:45 10° 319° (NW) 2,620 7.6 8.8°
Maximum altitude 14:06:23 36° 25° (NNE) 1,430 6.0 8.4°
Drops below altitude 10° 14:11:53 10° 91° (E) 2,568 7.4 8.0°
Sets 14:14:34 0° 100° (E) 3,472 8.2 7.8°
